This is the latest recevied weather packets stored in our database for station/object LX0APE-4. If no packets are shown the sender has not sent any weather packets the latest 10 day(s).
| Time | Temp. | Humidity | Pressure | Rain* | Wind** | Luminosity | Snow |
|---|---|---|---|---|---|---|---|
| 1777129336 | 31.67° C | 14% | 5014.7 hPa | 0 mm | - | - | - |
| 1777129036 | 31.11° C | 14% | 5014.7 hPa | 0 mm | - | - | - |
| 1777128736 | 31.11° C | 14% | 5014.7 hPa | 0 mm | - | - | - |
| 1777128436 | 31.11° C | 15% | 5014.6 hPa | 0 mm | - | - | - |
| 1777128136 | 31.11° C | 15% | 5014.6 hPa | 0 mm | - | - | - |
| 1777127841 | 31.11° C | 15% | 5014.5 hPa | 0 mm | - | - | - |
| 1777127836 | 31.11° C | 15% | 5014.5 hPa | 0 mm | - | - | - |
| 1777127536 | 31.67° C | 15% | 5014.7 hPa | 0 mm | - | - | - |
| 1777127236 | 32.78° C | 15% | 5014.5 hPa | 0 mm | - | - | - |
| 1777126936 | 31.67° C | 16% | 5014.8 hPa | 0 mm | - | - | - |
| 1777126636 | 31.11° C | 16% | 5014.8 hPa | 0 mm | - | - | - |
| 1777126336 | 30° C | 16% | 5014.7 hPa | 0 mm | - | - | - |
| 1777126042 | 30° C | 16% | 5014.6 hPa | 0 mm | - | - | - |
| 1777126036 | 30° C | 16% | 5014.6 hPa | 0 mm | - | - | - |
| 1777125736 | 30.56° C | 16% | 5014.8 hPa | 0 mm | - | - | - |
| 1777125436 | 31.11° C | 18% | 5014.8 hPa | 0 mm | - | - | - |
| 1777125141 | 30° C | 17% | 5014.7 hPa | 0 mm | - | - | - |
| 1777125136 | 30° C | 17% | 5014.7 hPa | 0 mm | - | - | - |
| 1777124836 | 30° C | 17% | 5014.6 hPa | 0 mm | - | - | - |
| 1777124536 | 30° C | 17% | 5014.8 hPa | 0 mm | - | - | - |
| 1777124241 | 29.44° C | 19% | 5014.9 hPa | 0 mm | - | - | - |
| 1777124236 | 29.44° C | 19% | 5014.9 hPa | 0 mm | - | - | - |
| 1777123936 | 29.44° C | 17% | 5014.7 hPa | 0 mm | - | - | - |
| 1777123636 | 29.44° C | 19% | 5014.8 hPa | 0 mm | - | - | - |
| 1777123336 | 28.89° C | 19% | 5014.8 hPa | 0 mm | - | - | - |
* Rain latest hour (hover to see other rain measurements)
** Current wind speed in m/s (hover to see current wind gust speed)